Regional Weather Roundup
Issued by NWS Little Rock, AR

Home | Current Version | Previous Version | Text Only | Print | Product List | Glossary Off
Versions: 1 2 3 4 5 6 7 8 9 10 11 12 13 14 15 16 17 18 19 20 21 22 23 24 25 26 27 28 29 30 31 32 33 34 35 36 37 38 39 40 41 42 43 44 45 46 47 48 49 50

000
ASUS44 KLZK 060205
RWRLZK

WEATHER ROUNDUP FOR ARKANSAS
NATIONAL WEATHER SERVICE LITTLE ROCK AR
900 PM CDT TUE MAY 05 2015

NOTE: "FAIR" INDICATES FEW OR NO CLOUDS BELOW 12,000 FEET WITH NO
SIGNIFICANT WEATHER AND/OR OBSTRUCTIONS TO VISIBILITY.

ARZ001-003-010-029-060300-
NORTHWEST ARKANSAS

CITY           SKY/WX    TMP DP  RH WIND       PRES   REMARKS
FAYETTEVILLE   MOCLDY    72  57  59 SE8       30.05R
FORT SMITH     CLOUDY    77  53  43 E8        30.01R
HARRISON       PTCLDY    70  55  59 SE9       30.09R
BENTONVILLE    MOCLDY    72  52  49 SE8       30.06R
ROGERS         MOCLDY    72  54  53 SE8       30.06R
SILOAM SPGS    CLOUDY    70  52  52 SE7       30.04S
HIGHFILL       MOCLDY    73  53  49 SE12      30.04R
SPRINGDALE     MOCLDY    72  54  53 SE12      30.07R
$$

ARZ004-005-016-060300-
NORTH CENTRAL ARKANSAS

CITY           SKY/WX    TMP DP  RH WIND       PRES   REMARKS
BATESVILLE     CLEAR     72  52  49 SE7       30.10R
FLIPPIN        PTCLDY    72  54  53 E3        30.07R
MTN HOME       PTCLDY    70  53  54 SE6       30.08S
$$

ARZ040-041-060300-
WEST CENTRAL ARKANSAS

CITY           SKY/WX    TMP DP  RH WIND       PRES   REMARKS
MENA           PTCLDY    75  55  50 SE5       30.05R
MOUNT IDA      PTCLDY    75  53  46 VRB3      30.04R
$$

ARZ009-017-025-026-028-060300-
NORTHEAST ARKANSAS

CITY           SKY/WX    TMP DP  RH WIND       PRES   REMARKS
CORNING          N/A     73  54  49 SE7       30.11S
JONESBORO      CLEAR     69  53  56 S5        30.11R
NEWPORT        CLEAR     73  52  47 SE12      30.11S
WALNUT RIDGE   CLEAR     70  48  46 S8        30.11R
BLYTHEVILLE    CLEAR     74  54  49 S7        30.13R
$$

ARZ022-023-033-042-044-060300-
CENTRAL ARKANSAS

CITY           SKY/WX    TMP DP  RH WIND       PRES   REMARKS
LITTLE ROCK    MOCLDY    74  55  51 SE6       30.07R
N LITTLE ROCK  MOCLDY    77  58  52 SE8       30.07
JACKSONVILLE   CLEAR     74  56  51 SE8       30.08R
SEARCY         CLEAR     72  55  55 SE6       30.10R
HOT SPRINGS    PTCLDY    75  56  51 E7        30.05R
RUSSELLVILLE   PTCLDY    75  55  49 E5        30.05R
CLINTON        FAIR      66  59  77 CALM      30.10R
$$

ARZ036-060300-
EAST ARKANSAS

CITY           SKY/WX    TMP DP  RH WIND       PRES   REMARKS
WEST MEMPHIS   CLEAR     70  55  59 SE6       30.12R
$$

ARZ050-053-066-070-073-060300-
SOUTHWEST ARKANSAS

CITY           SKY/WX    TMP DP  RH WIND       PRES   REMARKS
ARKADELPHIA    FAIR      70  62  75 CALM      30.05R
CAMDEN         PTCLDY    70  57  64 CALM      30.05R
TEXARKANA      MOCLDY    74  62  66 SE6       30.03R
EL DORADO      CLEAR     71  59  65 E5        30.06R
DE QUEEN       MOCLDY    75  61  61 SE6       30.00R
$$

ARZ056-057-069-060300-
SOUTHEAST ARKANSAS

CITY           SKY/WX    TMP DP  RH WIND       PRES   REMARKS
PINE BLUFF     CLEAR     71  58  63 SE6       30.08R
STUTTGART      CLEAR     73  54  49 SE7       30.10R
MONTICELLO     CLEAR     75  57  53 SE5       30.08R

$$





USA.gov is the U.S. government's official web portal to all federal, state and local government web resources and services.